This is the latest recevied weather packets stored in our database for station/object W5GGH. If no packets are shown the sender has not sent any weather packets the latest 1 day(s).
| Time | Temp. | Humidity | Pressure | Rain* | Wind** | Luminosity | Snow |
|---|---|---|---|---|---|---|---|
| 1778056802 | 15.56° C | 75% | 1027.2 hPa | 0 mm | 2.24 m/s, 42° | 0 W/m² | - |
| 1778056500 | 15.56° C | 75% | 1027.1 hPa | 0 mm | 0.89 m/s, 6° | 0 W/m² | - |
| 1778056197 | 15.56° C | 75% | 1027 hPa | 0 mm | 0.89 m/s, 6° | 0 W/m² | - |
| 1778055894 | 15.56° C | 75% | 1027 hPa | 0 mm | 0.89 m/s, 34° | 0 W/m² | - |
| 1778055589 | 15.56° C | 76% | 1026.9 hPa | 0 mm | 0.89 m/s, 30° | 0 W/m² | - |
| 1778055288 | 16.11° C | 75% | 1026.7 hPa | 0 mm | 0.89 m/s, 25° | 0 W/m² | - |
| 1778054985 | 16.11° C | 76% | 1026.8 hPa | 0 mm | 1.34 m/s, 331° | 0 W/m² | - |
| 1778054682 | 16.11° C | 76% | 1026.9 hPa | 0 mm | 1.79 m/s, 8° | 0 W/m² | - |
| 1778054379 | 16.11° C | 75% | 1026.8 hPa | 0 mm | 0.89 m/s, 0° | 0 W/m² | - |
| 1778054077 | 16.11° C | 76% | 1026.8 hPa | 0 mm | 1.34 m/s, 17° | 0 W/m² | - |
| 1778053773 | 16.11° C | 76% | 1026.7 hPa | 0 mm | 0.89 m/s, 25° | 0 W/m² | - |
| 1778053471 | 16.11° C | 76% | 1026.8 hPa | 0 mm | 1.79 m/s, 27° | 0 W/m² | - |
| 1778053168 | 16.11° C | 76% | 1026.5 hPa | 0 mm | 0.89 m/s, 359° | 0 W/m² | - |
| 1778052866 | 16.11° C | 76% | 1026.7 hPa | 0 mm | 1.34 m/s, 29° | 0 W/m² | - |
| 1778052563 | 16.11° C | 76% | 1026.6 hPa | 0 mm | 0.89 m/s, 60° | 0 W/m² | - |
| 1778052260 | 16.11° C | 76% | 1026.6 hPa | 0 mm | 0.89 m/s, 11° | 0 W/m² | - |
| 1778051958 | 16.11° C | 76% | 1026.6 hPa | 0 mm | 1.79 m/s, 25° | 0 W/m² | - |
| 1778051656 | 16.11° C | 76% | 1026.6 hPa | 0 mm | 1.34 m/s, 0° | 0 W/m² | - |
| 1778051352 | 16.67° C | 76% | 1026.4 hPa | 0 mm | 0.45 m/s, 42° | 0 W/m² | - |
| 1778051049 | 16.67° C | 76% | 1026.4 hPa | 0 mm | 1.34 m/s, 18° | 0 W/m² | - |
| 1778050747 | 16.67° C | 76% | 1026.5 hPa | 0 mm | 1.34 m/s, 71° | 0 W/m² | - |
| 1778050444 | 16.67° C | 76% | 1026.5 hPa | 0 mm | 1.34 m/s, 350° | 0 W/m² | - |
| 1778050140 | 16.67° C | 76% | 1026.5 hPa | 0 mm | 1.79 m/s, 31° | 0 W/m² | - |
| 1778049836 | 16.67° C | 77% | 1026.3 hPa | 0 mm | 2.24 m/s, 4° | 0 W/m² | - |
| 1778049533 | 16.67° C | 77% | 1026.6 hPa | 0 mm | 1.34 m/s, 328° | 0 W/m² | - |
* Rain latest hour (hover to see other rain measurements)
** Current wind speed in m/s (hover to see current wind gust speed)